This is the latest recevied weather packets stored in our database for station/object lw9ero. If no packets are shown the sender has not sent any weather packets the latest 10 day(s).
| Time | Temp. | Humidity | Pressure | Rain* | Wind** | Luminosity | Snow |
|---|---|---|---|---|---|---|---|
| 1778157878 | 12.78° C | 81% | 1005.9 hPa | 0 mm | - | 298 W/m² | - |
| 1778157273 | 12.78° C | 82% | 1004.9 hPa | 0 mm | - | 298 W/m² | - |
| 1778156667 | 12.78° C | 82% | 1004.9 hPa | 0 mm | - | 298 W/m² | - |
| 1778156061 | 12.78° C | 84% | 1004.4 hPa | 0 mm | - | 298 W/m² | - |
| 1778155454 | 12.78° C | 84% | 1004.7 hPa | 0 mm | - | 298 W/m² | - |
| 1778154848 | 12.78° C | 85% | 1004.4 hPa | 0 mm | - | 298 W/m² | - |
| 1778154242 | 13.33° C | 86% | 1004 hPa | 0 mm | - | 298 W/m² | - |
| 1778153635 | 13.33° C | 86% | 1003.8 hPa | 0 mm | - | 298 W/m² | - |
| 1778153029 | 13.89° C | 89% | 1005.1 hPa | 0 mm | - | 262 W/m² | - |
| 1778152436 | 13.89° C | 88% | 1005.7 hPa | 0 mm | - | 262 W/m² | - |
| 1778151817 | 13.89° C | 90% | 1006.2 hPa | 0 mm | - | 262 W/m² | - |
| 1778151210 | 13.89° C | 90% | 1006 hPa | 0 mm | - | 262 W/m² | - |
| 1778150604 | 14.44° C | 91% | 1006 hPa | 0 mm | - | 262 W/m² | - |
| 1778150001 | 14.44° C | 91% | 1005.5 hPa | 0 mm | - | 262 W/m² | - |
| 1778149392 | 14.44° C | 92% | 1006 hPa | 0 mm | - | 189 W/m² | - |
| 1778148786 | 14.44° C | 92% | 1006.1 hPa | 0 mm | - | 189 W/m² | - |
| 1778148179 | 14.44° C | 93% | 1005.5 hPa | 0 mm | - | 189 W/m² | - |
| 1778147573 | 13.89° C | 95% | 1005.6 hPa | 0 mm | - | 43 W/m² | - |
| 1778146968 | 13.89° C | 96% | 1005.6 hPa | 0 mm | - | 43 W/m² | - |
| 1778146362 | 13.89° C | 96% | 1006.4 hPa | 0 mm | - | 43 W/m² | - |
| 1778145756 | 13.89° C | 97% | 1006 hPa | 0 mm | - | 7 W/m² | - |
| 1778145149 | 13.33° C | 97% | 1006.2 hPa | 0 mm | - | 7 W/m² | - |
| 1778144559 | 13.33° C | 97% | 1006.5 hPa | 0 mm | - | 7 W/m² | - |
| 1778143941 | 13.33° C | 97% | 1006.3 hPa | 0 mm | - | - | - |
| 1778143331 | 13.33° C | 97% | 1006.5 hPa | 0 mm | - | - | - |
* Rain latest hour (hover to see other rain measurements)
** Current wind speed in m/s (hover to see current wind gust speed)